[[{"header":{"parameterUnit":"m.s-1","parameterCategory":1,"la1":30.2991,"la2":30.254,"lo1":-89.0895,"lo2":-89.0444,"dy":0.0017,"dx":0.0017,"nx":28,"ny":28,"refTime":"2024-05-28T21:00:00:Z","depth":0,"parameterNumber":2,"parameterNumberName":"U-component_of_WINDS"},"data":[0,0,0,0,0,0,0,0,0,0,0,0,0,0,0,0,0,0,0,0,0,0,0,0,0,0,0,0,0,0,0,0,0,0,0,0,0,0,0,0,0,0,0,0,0,0,0,0,0,0,0,0,0,0,0,0,0,0,-1.102,-1.102,0,-1.0975,-1.0975,-1.0974,-1.0928,-1.0928,-1.0927,-1.0926,-1.088,-1.0879,-1.0879,0,0,0,0,0,0,0,0,0,0,0,0,0,-1.1066,-1.1066,-1.102,-1.102,-1.1019,-1.0975,-1.0975,-1.0974,-1.0928,-1.0928,-1.0927,-1.0926,-1.088,-1.0879,-1.0879,0,0,0,0,0,0,0,0,0,0,0,0,0,-1.1036,-1.1066,-1.1021,-1.0991,-1.0988,-1.0975,-1.0975,-1.0974,-1.0929,-1.0928,-1.0927,-1.0926,-1.0881,-1.088,-1.0879,-1.0891,0,0,-1.0876,-1.0875,0,0,0,0,0,0,0,0,-1.1038,-1.1035,-1.0996,-1.0993,-1.099,-1.0956,-1.0974,-1.0946,-1.0929,-1.0951,-1.0926,-1.0925,-1.0906,-1.0903,-1.0897,-1.0889,-1.0887,-1.0875,-1.0875,-1.0874,-1.0874,0,0,0,0,0,0,0,-1.104,-1.1036,-1.1002,-1.0996,-1.0992,-1.098,-1.0975,-1.0968,-1.0934,-1.0949,-1.0946,-1.0941,-1.0904,-1.0898,-1.0895,-1.0886,-1.0875,-1.0875,-1.0874,-1.0874,-1.0884,-1.0885,0,0,0,0,0,0,-1.1047,-1.1039,-1.1004,-1.1001,-1.1012,-1.098,-1.0974,-1.0968,-1.0934,-1.0928,-1.0942,-1.0939,-1.09,-1.0896,-1.0893,-1.0904,-1.0874,-1.0873,-1.0873,-1.0884,-1.0885,-1.0886,0,0,0,0,0,0,-1.1048,-1.1044,-1.1006,-1.1019,-1.1013,-1.098,-1.0974,-1.0968,-1.0961,-1.0929,-1.0923,-1.0941,-1.0899,-1.0895,-1.0891,-1.0902,-1.0873,-1.0872,-1.0883,-1.0884,-1.0885,-1.0927,0,0,0,0,0,0,-1.105,-1.1045,-1.105,-1.1019,-1.1013,-1.1005,-1.0974,-1.0967,-1.0959,-1.0955,-1.0927,-1.0921,-1.0898,-1.0893,-1.0891,-1.09,-1.0871,-1.0881,-1.0883,-1.0885,-1.0925,-1.093,-1.0934,0,0,0,0,0,-1.1051,-1.1064,-1.105,-1.1046,-1.1018,-1.1006,-1.1002,-1.0975,-1.096,-1.0964,-1.0944,-1.0922,-1.0902,-1.0893,-1.089,-1.0899,-1.0881,-1.0883,-1.0885,-1.0923,-1.0929,-1.0934,0,0,0,0,0,0,-1.1096,-1.1059,-1.1044,-1.1047,-1.103,-1.0998,-1.1002,-1.0983,-1.097,-1.0966,-1.0933,-1.0927,-1.0928,-1.0913,-1.0905,-1.0909,-1.0888,-1.0889,-1.0918,-1.0924,-1.0929,-1.0932,-1.0871,0,0,0,0,0,-1.1106,-1.11,-1.1068,-1.1074,-1.1066,-1.1036,-1.103,-1.101,-1.0991,-1.0984,-1.0963,-1.0946,-1.0935,-1.0929,-1.0917,-1.0923,-1.0915,-1.0928,-1.0932,-1.0936,-1.0938,-1.0938,-1.0943,-1.0892,-1.0892,-1.0892,0,0,-1.1127,-1.1106,-1.1104,-1.1082,-1.1067,-1.106,-1.103,-1.1025,-1.102,-1.0983,-1.0979,-1.0963,-1.0941,-1.0942,-1.0941,-1.093,-1.095,-1.0939,-1.0942,-1.0941,-1.0941,-1.0946,-1.095,-1.0893,-1.0893,-1.0893,0,0,-1.1162,-1.1146,-1.1148,-1.1134,-1.111,-1.109,-1.1091,-1.1062,-1.105,-1.1045,-1.1017,-1.101,-1.0993,-1.0978,-1.0968,-1.0997,-1.0976,-1.0994,-1.1019,-1.1019,-1.1023,-1.1027,-1.1036,-1.1039,-1.0996,-1.0996,-1.0996,0,-1.1191,-1.1181,-1.1152,-1.1148,-1.1139,-1.1105,-1.1107,-1.1094,-1.1068,-1.1062,-1.105,-1.1027,-1.101,-1.1006,-1.1013,-1.1007,-1.1006,-1.0997,-1.1025,-1.1028,-1.1031,-1.1039,-1.1043,-1.0998,-1.0998,-1.0998,-1.0997,0,-1.1217,-1.121,-1.1215,-1.119,-1.1182,-1.1181,-1.1151,-1.1146,-1.1127,-1.1108,-1.1102,-1.1081,-1.1064,-1.1062,-1.1044,-1.1055,-1.1049,-1.1031,-1.1009,-1.1039,-1.1046,-1.1049,-1.1001,-1.1,-1.1,-1.0999,0,0,-1.1279,-1.1238,-1.124,-1.1228,-1.12,-1.1194,-1.1191,-1.1175,-1.117,-1.1153,-1.1149,-1.1135,-1.1119,-1.1108,-1.1088,-1.1089,-1.1111,-1.1071,-1.107,-1.1078,-1.1121,-1.1133,-1.1137,-1.1097,-1.1098,-1.1098,-1.1122,0,-1.1308,-1.1301,-1.1274,-1.1275,-1.1268,-1.1235,-1.1233,-1.1215,-1.1197,-1.1188,-1.1168,-1.1158,-1.1137,-1.113,-1.113,-1.1108,-1.1119,-1.1106,-1.1092,-1.1092,-1.1098,-1.1141,-1.1154,-1.1178,-1.1125,-1.1125,-1.1125,0,-1.1341,-1.1326,-1.1326,-1.1297,-1.1293,-1.1291,-1.1273,-1.1265,-1.1244,-1.123,-1.1218,-1.1195,-1.1189,-1.117,-1.1161,-1.1153,-1.1146,-1.1134,-1.1135,-1.1132,-1.111,-1.1138,-1.1185,-1.1188,-1.113,-1.1129,-1.1129,0,-1.1385,-1.1365,-1.1362,-1.1353,-1.1319,-1.1318,-1.1304,-1.1282,-1.1273,-1.1258,-1.1251,-1.1235,-1.1226,-1.1214,-1.1187,-1.1176,-1.1181,-1.116,-1.1169,-1.117,-1.1171,-1.1171,-1.1217,-1.1169,-1.1169,-1.1168,-1.1168,0,-1.1419,-1.142,-1.1381,-1.1379,-1.1378,-1.1348,-1.1348,-1.1331,-1.1312,-1.1305,-1.1277,-1.1271,-1.1237,-1.1227,-1.1206,-1.1202,-1.1198,-1.1187,-1.1181,-1.1188,-1.119,-1.1183,-1.118,-1.1169,-1.1169,-1.1169,-1.1169,0,-1.1468,-1.1442,-1.1436,-1.1404,-1.1396,-1.1398,-1.137,-1.1367,-1.1347,-1.1339,-1.1335,-1.1304,-1.1291,-1.1264,-1.1243,-1.1229,-1.1229,-1.122,-1.1236,-1.1232,-1.1243,-1.1242,-1.1285,-1.1288,-1.1239,-1.124,-1.124,0,-1.1491,-1.1491,-1.146,-1.1453,-1.144,-1.1431,-1.1421,-1.1391,-1.1383,-1.1358,-1.1357,-1.1342,-1.1328,-1.1309,-1.1284,-1.1268,-1.1257,-1.1273,-1.1255,-1.1262,-1.1256,-1.1256,-1.1255,-1.1277,-1.1278,-1.1279,-1.1279,0,-1.1536,-1.1522,-1.151,-1.1493,-1.1483,-1.1468,-1.1452,-1.1448,-1.1414,-1.1406,-1.1392,-1.1382,-1.136,-1.1345,-1.1325,-1.131,-1.1289,-1.1285,-1.1286,-1.1294,-1.1303,-1.1297,-1.1246,-1.1284,-1.1284,-1.1283,-1.1283,-1.1283,-1.1571,-1.1569,-1.1546,-1.1533,-1.1518,-1.1503,-1.1498,-1.1477,-1.1465,-1.1446,-1.1429,-1.1416,-1.1394,-1.1365,-1.1351,-1.1341,-1.133,-1.1332,-1.1332,-1.1333,-1.1336,-1.1305,-1.1337,-1.1337,-1.1337,-1.1337,-1.1336,0,-1.1613,-1.1596,-1.1585,-1.1563,-1.1552,-1.1533,-1.1514,-1.1506,-1.1496,-1.1477,-1.1464,-1.1447,-1.1432,-1.1406,-1.1389,-1.1385,-1.1375,-1.1382,-1.1381,-1.1378,-1.1347,-1.1347,-1.139,-1.139,-1.139,-1.139,-1.139,-1.139,-1.1633,-1.1628,-1.1612,-1.1599,-1.1582,-1.157,-1.156,-1.1546,-1.153,-1.1514,-1.1501,-1.1484,-1.1462,-1.1442,-1.1427,-1.142,-1.1414,-1.1424,-1.1413,-1.1385,-1.138,-1.1375,-1.1375,-1.1423,-1.1423,-1.1445,-1.1445,-1.1445]},{"header":{"parameterUnit":"m.s-1","parameterCategory":1,"la1":30.2991,"la2":30.254,"lo1":-89.0895,"lo2":-89.0444,"dy":0.0017,"dx":0.0017,"nx":28,"ny":28,"refTime":"2024-05-28T21:00:00:Z","depth":0,"parameterNumber":3,"parameterNumberName":"V-component_of_WINDS"},"data":[0,0,0,0,0,0,0,0,0,0,0,0,0,0,0,0,0,0,0,0,0,0,0,0,0,0,0,0,0,0,0,0,0,0,0,0,0,0,0,0,0,0,0,0,0,0,0,0,0,0,0,0,0,0,0,0,0,0,1.1089,1.1089,0,1.1118,1.1118,1.1118,1.1158,1.1159,1.1159,1.116,1.1191,1.1191,1.1192,0,0,0,0,0,0,0,0,0,0,0,0,0,1.1068,1.1068,1.1089,1.1089,1.1089,1.1118,1.1118,1.1119,1.1158,1.1159,1.1159,1.116,1.1191,1.1191,1.1192,0,0,0,0,0,0,0,0,0,0,0,0,0,1.1085,1.1068,1.1088,1.1112,1.1115,1.1118,1.1118,1.1119,1.1158,1.1159,1.116,1.1161,1.1191,1.1191,1.1192,1.1174,0,0,1.1193,1.1193,0,0,0,0,0,0,0,0,1.1084,1.1085,1.1108,1.1111,1.1113,1.1135,1.1122,1.1137,1.1157,1.1141,1.116,1.1161,1.1172,1.1174,1.1177,1.1175,1.1177,1.1193,1.1193,1.1193,1.1193,0,0,0,0,0,0,0,1.1082,1.1084,1.11,1.1109,1.1112,1.1122,1.1125,1.1125,1.1151,1.1143,1.1146,1.1149,1.1173,1.1177,1.1178,1.1177,1.1193,1.1193,1.1193,1.1193,1.1163,1.1162,0,0,0,0,0,0,1.1078,1.1083,1.1099,1.1101,1.1101,1.1121,1.1125,1.1127,1.1151,1.1155,1.1148,1.115,1.1176,1.1178,1.1179,1.1161,1.1193,1.1193,1.1193,1.1164,1.1163,1.1162,0,0,0,0,0,0,1.1077,1.1079,1.1098,1.1093,1.1096,1.1121,1.1122,1.1127,1.1131,1.1155,1.1159,1.1146,1.1177,1.1179,1.1175,1.1163,1.1193,1.1194,1.1165,1.1164,1.1162,1.1124,0,0,0,0,0,0,1.1076,1.1078,1.1072,1.1092,1.1096,1.1093,1.1122,1.1127,1.1131,1.1135,1.1155,1.1159,1.1177,1.1174,1.1175,1.1164,1.1194,1.1166,1.1165,1.1163,1.1126,1.1121,1.1117,0,0,0,0,0,1.1075,1.106,1.1071,1.1073,1.1088,1.1092,1.1094,1.1116,1.113,1.1124,1.1139,1.1158,1.1163,1.1174,1.1175,1.1163,1.1167,1.1165,1.1163,1.1128,1.1122,1.1117,0,0,0,0,0,0,1.1038,1.1063,1.1076,1.1067,1.1077,1.1099,1.1092,1.1108,1.1115,1.1118,1.1145,1.1149,1.1142,1.1152,1.1163,1.1148,1.1168,1.1166,1.1142,1.1136,1.1131,1.113,1.1194,0,0,0,0,0,1.1028,1.1028,1.1051,1.104,1.1045,1.1067,1.1069,1.1085,1.1097,1.1101,1.1116,1.1128,1.1132,1.1134,1.1139,1.1127,1.1133,1.112,1.1115,1.1111,1.111,1.1105,1.1099,1.1154,1.1154,1.1154,0,0,1.1009,1.1023,1.1021,1.1033,1.1043,1.1043,1.1071,1.107,1.107,1.1101,1.1099,1.111,1.1124,1.1116,1.1114,1.1125,1.1095,1.1108,1.1105,1.1106,1.1102,1.1097,1.1092,1.1153,1.1153,1.1153,0,0,1.0974,1.0984,1.0977,1.0986,1.1,1.1015,1.1013,1.1032,1.1041,1.1038,1.1061,1.1062,1.1069,1.1078,1.1084,1.1051,1.107,1.1052,1.1028,1.1023,1.1019,1.1015,1.1004,1.1,1.105,1.105,1.105,0,1.0948,1.0949,1.0971,1.0969,1.0973,1.1,1.0994,1.1001,1.1017,1.1019,1.1031,1.104,1.1051,1.1046,1.1038,1.1041,1.1041,1.1051,1.1017,1.1014,1.1011,1.1001,1.0997,1.1048,1.1048,1.1048,1.1049,0,1.0918,1.0918,1.091,1.0924,1.0928,1.0923,1.0944,1.0945,1.096,1.0973,1.0971,1.0985,1.0994,1.0993,1.1008,1.099,1.0997,1.1012,1.1034,1.1003,1.0994,1.0991,1.1045,1.1046,1.1046,1.1047,0,0,1.0862,1.0886,1.0883,1.089,1.0907,1.0908,1.0904,1.0912,1.0913,1.0922,1.0921,1.0925,1.0939,1.0946,1.0961,1.0956,1.0931,1.0973,1.0973,1.0966,1.0914,1.0903,1.0898,1.0942,1.0942,1.0941,1.0913,0,1.0831,1.0827,1.0846,1.0836,1.0837,1.0862,1.0859,1.087,1.0882,1.0885,1.0898,1.0901,1.0919,1.0924,1.092,1.0935,1.0921,1.0937,1.0942,1.0942,1.0939,1.0894,1.0882,1.0855,1.091,1.0909,1.0909,0,1.0796,1.0803,1.0793,1.0811,1.0812,1.0809,1.0818,1.0819,1.0832,1.0841,1.0847,1.0865,1.0863,1.0882,1.088,1.0891,1.0894,1.0901,1.0901,1.0903,1.0925,1.0896,1.0847,1.0843,1.0903,1.0904,1.0904,0,1.0757,1.0764,1.0759,1.0764,1.0784,1.0781,1.079,1.0803,1.0806,1.0814,1.0816,1.0823,1.0828,1.0833,1.0852,1.0864,1.0849,1.0869,1.0857,1.0857,1.0855,1.0855,1.0806,1.0854,1.0854,1.0854,1.0854,0,1.0723,1.0716,1.0743,1.074,1.0733,1.0755,1.0748,1.0759,1.077,1.077,1.0792,1.0791,1.0816,1.0819,1.0833,1.083,1.0832,1.084,1.0844,1.0839,1.0838,1.0843,1.0846,1.0853,1.0853,1.0853,1.0853,0,1.0679,1.0697,1.0694,1.0712,1.0717,1.0711,1.0728,1.0726,1.0739,1.0739,1.074,1.0761,1.0765,1.0784,1.0793,1.0803,1.0795,1.0802,1.0791,1.0794,1.0782,1.0783,1.0736,1.0731,1.078,1.0779,1.0779,0,1.0657,1.0653,1.067,1.0672,1.0679,1.0681,1.0684,1.0705,1.0708,1.0721,1.0718,1.0723,1.0729,1.0735,1.0751,1.0758,1.0767,1.0749,1.0768,1.0763,1.0768,1.0769,1.0769,1.0746,1.0745,1.0745,1.0744,0,1.0616,1.0624,1.0628,1.0635,1.0638,1.0645,1.0653,1.0653,1.0675,1.0677,1.0682,1.0686,1.0695,1.07,1.071,1.0719,1.0736,1.0738,1.0736,1.0731,1.0725,1.073,1.0782,1.074,1.074,1.074,1.0741,1.0741,1.0583,1.0581,1.0593,1.0597,1.0604,1.0611,1.061,1.0623,1.0627,1.0635,1.0647,1.0649,1.0661,1.0676,1.0683,1.0686,1.0696,1.0692,1.0692,1.0691,1.0689,1.0723,1.0688,1.0688,1.0688,1.0688,1.0688,0,1.0544,1.0553,1.0556,1.0566,1.0569,1.0583,1.0592,1.0594,1.0596,1.0605,1.061,1.0615,1.0621,1.0637,1.0644,1.0643,1.0651,1.0644,1.0646,1.0648,1.0679,1.0681,1.0638,1.0638,1.0638,1.0638,1.0638,1.0638,1.0524,1.0521,1.0531,1.0531,1.054,1.0543,1.0547,1.0553,1.0561,1.0565,1.057,1.0579,1.0592,1.06,1.0606,1.061,1.0613,1.0604,1.0611,1.064,1.0645,1.065,1.0652,1.0603,1.0603,1.058,1.0579,1.0579]}]]